CW0962 Weather Reports


Display with metric or nautical units.
time (UTC)temp
F
wind
direction
speed
MPH
gust
MPH
rain 1hr
in
rain 24hr
in
rain mn
in
humidity
%
barometer
mb
20260510095009 54 202 3.0 8.0 0.00 0.20 0.00 91 1010.5
20260510094513 54 113 3.0 7.0 0.00 0.20 0.00 91 1010.4
20260510094033 54 151 2.0 6.0 0.00 0.20 0.00 91 1010.5
20260510093508 54 164 2.0 6.0 0.00 0.20 0.00 91 1010.6
20260510092008 54 150 2.0 7.0 0.00 0.20 0.00 91 1010.4
20260510091501 54 178 1.0 3.0 0.00 0.20 0.00 91 1010.4
20260510091004 54 175 2.0 7.0 0.00 0.20 0.00 91 1010.4
20260510090506 54 238 2.0 7.0 0.00 0.20 0.00 91 1010.4
20260510090009 54 180 2.0 7.0 0.00 0.20 0.00 91 1010.4
20260510085501 54 205 2.0 7.0 0.00 0.20 0.00 91 1010.4
20260510085008 54 198 2.0 8.0 0.00 0.20 0.00 91 1010.4
20260510084507 54 211 3.0 8.0 0.00 0.20 0.00 91 1010.3
20260510084005 54 195 3.0 8.0 0.00 0.20 0.00 91 1010.2
20260510083459 54 211 3.0 8.0 0.00 0.20 0.00 91 1010.1
20260510083002 54 188 3.0 8.0 0.00 0.20 0.00 91 1010.2
20260510082511 54 165 2.0 12.0 0.00 0.20 0.00 91 1010.2
20260510082004 54 193 3.0 12.0 0.00 0.20 0.00 91 1010.3
20260510081458 54 156 3.0 9.0 0.00 0.20 0.00 90 1010.2
20260510081039 54 159 3.0 8.0 0.00 0.20 0.00 90 1010.2
20260510080501 55 206 3.0 8.0 0.00 0.20 0.00 91 1010.2
20260510080028 55 199 3.0 9.0 0.00 0.20 0.00 91 1010.2
20260510075507 55 194 3.0 9.0 0.00 0.20 0.00 90 1010.2
20260510074959 55 191 4.0 9.0 0.00 0.20 0.00 90 1010.1
20260510074535 55 150 3.0 9.0 0.00 0.20 0.00 90 1010.1
20260510074008 55 163 3.0 11.0 0.00 0.20 0.00 90 1010.1
20260510073516 55 225 3.0 11.0 0.00 0.20 0.00 90 1010.1
20260510073010 55 219 3.0 9.0 0.00 0.20 0.00 90 1010.1
20260510072508 55 276 3.0 9.0 0.00 0.20 0.00 90 1009.9
20260510072002 55 221 3.0 9.0 0.00 0.20 0.00 90 1009.9
20260510071504 55 186 3.0 10.0 0.00 0.20 0.00 90 1009.8
20260510071004 55 205 3.0 10.0 0.00 0.20 0.00 90 1009.7
20260510070515 55 171 3.0 10.0 0.00 0.20 0.00 90 1009.6
20260510070004 55 133 4.0 11.0 0.00 0.20 0.00 90 1009.6
20260510064504 55 219 3.0 9.0 0.00 0.20 0.00 90 1009.5
20260510064000 55 134 3.0 10.0 0.00 0.20 0.00 90 1009.5
20260510062959 55 161 3.0 9.0 0.00 0.20 0.00 90 1009.7
20260510062504 55 184 3.0 8.0 0.00 0.20 0.00 90 1009.7
20260510062026 55 215 3.0 8.0 0.00 0.20 0.00 90 1009.7
20260510061508 55 157 4.0 10.0 0.00 0.20 0.00 90 1009.6
20260510060500 55 171 4.0 11.0 0.00 0.20 0.00 89 1009.7
20260510060023 55 160 4.0 13.0 0.00 0.20 0.00 89 1009.7
20260510055507 55 170 4.0 13.0 0.00 0.20 0.00 89 1009.7
20260510055002 55 172 4.0 11.0 0.00 0.20 0.00 89 1009.6
20260510054507 55 186 5.0 18.0 0.00 0.20 0.00 89 1009.7
20260510053459 55 178 5.0 14.0 0.00 0.20 0.00 89 1009.6
20260510053028 56 161 5.0 14.0 0.00 0.20 0.00 89 1009.6
20260510052008 56 115 5.0 14.0 0.00 0.20 0.00 89 1009.6
20260510051508 56 143 5.0 14.0 0.00 0.20 0.00 89 1009.6
20260510051004 56 172 5.0 14.0 0.00 0.20 0.00 89 1009.6
20260510050508 56 107 6.0 13.0 0.00 0.20 0.00 89 1009.5
20260510050027 55 184 6.0 11.0 0.00 0.20 0.00 89 1009.6
20260510045510 55 199 5.0 13.0 0.00 0.20 0.00 89 1009.6
20260510044519 55 128 4.0 10.0 0.00 0.20 0.00 88 1009.7
20260510044009 55 150 4.0 10.0 0.00 0.20 0.00 88 1009.9
20260510043505 55 181 4.0 13.0 0.00 0.20 0.00 88 1009.9
20260510043002 55 78 4.0 13.0 0.00 0.20 0.00 88 1009.9
20260510042504 54 141 4.0 11.0 0.00 0.20 0.00 88 1010.0
20260510042000 54 138 3.0 11.0 0.00 0.20 0.00 88 1010.3
20260510041458 54 143 2.0 11.0 0.00 0.20 0.00 88 1010.1
20260510041002 54 135 3.0 11.0 0.00 0.20 0.00 88 1010.2
20260510040009 54 184 2.0 7.0 0.00 0.20 0.00 87 1010.1
20260510035511 53 195 3.0 7.0 0.00 0.20 0.20 87 1010.1
20260510035002 53 148 3.0 6.0 0.00 0.20 0.20 87 1010.0
20260510034508 53 147 3.0 7.0 0.00 0.20 0.20 87 1009.9
20260510034005 53 168 3.0 8.0 0.00 0.20 0.20 87 1009.9
20260510033008 53 135 5.0 10.0 0.00 0.20 0.20 87 1009.9
20260510032512 53 176 5.0 11.0 0.00 0.20 0.20 87 1010.0
20260510032001 53 127 4.0 11.0 0.00 0.20 0.20 87 1010.1
20260510031515 53 139 4.0 9.0 0.00 0.20 0.20 87 1010.2
20260510030508 53 123 3.0 9.0 0.00 0.20 0.20 86 1010.3
20260510030032 53 120 3.0 8.0 0.01 0.20 0.20 86 1010.4
20260510025505 53 136 4.0 8.0 0.01 0.20 0.20 86 1010.4
20260510025027 53 126 5.0 9.0 0.01 0.20 0.20 86 1010.5
20260510024502 53 127 4.0 9.0 0.01 0.20 0.20 86 1010.5
20260510024024 53 128 4.0 7.0 0.01 0.20 0.20 87 1010.7
20260510023504 53 163 3.0 7.0 0.01 0.20 0.20 87 1010.7
20260510023010 53 153 3.0 7.0 0.01 0.20 0.20 87 1010.8
20260510022036 53 138 4.0 9.0 0.01 0.20 0.20 87 1011.0
20260510021004 53 147 4.0 11.0 0.01 0.20 0.20 87 1011.1
20260510020507 53 129 5.0 12.0 0.01 0.20 0.20 87 1011.2
20260510020022 53 140 5.0 12.0 0.01 0.19 0.19 88 1011.2
20260510015008 53 150 4.0 10.0 0.01 0.19 0.19 88 1011.5
20260510014511 53 136 4.0 10.0 0.02 0.19 0.19 88 1011.6
20260510013507 53 156 4.0 9.0 0.02 0.19 0.19 88 1011.7
20260510013004 53 128 4.0 8.0 0.02 0.19 0.19 88 1011.8
20260510012500 53 150 4.0 8.0 0.02 0.19 0.19 88 1011.8
20260510012002 53 161 3.0 8.0 0.03 0.19 0.19 88 1011.9
20260510011005 53 157 4.0 11.0 0.03 0.19 0.19 88 1012.0
20260510005505 53 174 3.0 8.0 0.02 0.18 0.18 88 1012.0
20260510005009 53 198 3.0 8.0 0.02 0.18 0.18 88 1012.0
20260510004512 53 153 3.0 9.0 0.02 0.17 0.17 88 1012.1
20260510004007 54 136 3.0 11.0 0.02 0.17 0.17 88 1012.1
20260510003528 54 126 3.0 11.0 0.02 0.17 0.17 88 1012.1
20260510003005 54 123 3.0 10.0 0.02 0.17 0.17 88 1012.0
20260510002003 54 198 2.0 9.0 0.02 0.16 0.16 88 1012.0
20260510001501 54 161 2.0 7.0 0.02 0.16 0.16 89 1011.9
20260510001005 54 181 2.0 7.0 0.03 0.16 0.16 89 1011.9
20260510000501 54 163 1.0 7.0 0.03 0.16 0.16 89 1011.8
20260510000005 54 160 2.0 6.0 0.04 0.16 0.16 89 1011.8
20260509235504 54 194 2.0 8.0 0.04 0.16 0.16 89 1011.9
20260509235002 54 209 2.0 8.0 0.04 0.16 0.16 89 1011.8
20260509234510 54 201 2.0 8.0 0.03 0.15 0.15 89 1011.7
20260509234007 54 231 1.0 7.0 0.03 0.15 0.15 88 1011.7
20260509233514 54 113 2.0 6.0 0.03 0.15 0.15 88 1011.7
20260509233005 54 238 2.0 8.0 0.03 0.15 0.15 88 1011.7
20260509232517 54 179 2.0 8.0 0.02 0.14 0.14 88 1011.7
20260509231504 55 175 2.0 9.0 0.02 0.14 0.14 88 1011.7
20260509230501 55 180 4.0 11.0 0.03 0.13 0.13 88 1011.8
20260509230046 55 229 4.0 11.0 0.02 0.12 0.12 88 1011.7
20260509225043 55 205 3.0 11.0 0.02 0.12 0.12 88 1011.6
20260509224508 55 202 3.0 8.0 0.05 0.12 0.12 88 1011.5
20260509224005 55 199 3.0 8.0 0.06 0.12 0.12 88 1011.6
20260509223459 55 202 3.0 8.0 0.07 0.12 0.12 88 1011.5
20260509223006 55 223 2.0 8.0 0.07 0.12 0.12 87 1011.4
20260509222503 55 222 2.0 5.0 0.08 0.12 0.12 87 1011.4
20260509222011 55 221 2.0 9.0 0.09 0.12 0.12 87 1011.5
20260509221511 55 219 3.0 9.0 0.09 0.12 0.12 87 1011.3
20260509221004 56 246 4.0 8.0 0.08 0.11 0.11 87 1011.2
20260509220505 56 242 3.0 8.0 0.07 0.10 0.10 86 1011.3
20260509220007 56 211 2.0 8.0 0.07 0.10 0.10 86 1011.2
20260509215504 56 196 4.0 9.0 0.07 0.10 0.10 85 1011.1
20260509215008 56 176 5.0 10.0 0.07 0.10 0.10 84 1011.2
20260509214505 56 178 5.0 13.0 0.03 0.06 0.06 83 1011.4
20260509213459 57 213 6.0 20.0 0.02 0.05 0.05 80 1011.0
20260509213023 57 111 6.0 20.0 0.01 0.04 0.04 79 1011.0
20260509212501 58 171 6.0 16.0 0.01 0.04 0.04 76 1010.9
20260509212000 59 186 6.0 16.0 0.00 0.03 0.03 72 1010.9
20260509211527 60 216 6.0 16.0 0.00 0.03 0.03 70 1010.9
20260509211030 60 187 6.0 16.0 0.00 0.03 0.03 70 1010.7
20260509210507 60 245 6.0 18.0 0.00 0.03 0.03 70 1010.4
20260509210004 60 180 6.0 18.0 0.00 0.03 0.03 69 1010.3
20260509205513 60 275 6.0 21.0 0.00 0.03 0.03 70 1010.4
20260509204500 60 138 6.0 19.0 0.00 0.03 0.03 69 1010.3
20260509204027 61 196 6.0 13.0 0.00 0.03 0.03 69 1010.4
20260509203503 60 172 6.0 13.0 0.00 0.03 0.03 69 1010.5
20260509203005 60 252 6.0 15.0 0.00 0.03 0.03 69 1010.6
20260509202504 60 142 6.0 15.0 0.00 0.03 0.03 69 1010.6
20260509202009 60 190 6.0 12.0 0.00 0.03 0.03 70 1010.5
20260509201544 61 193 6.0 16.0 0.00 0.03 0.03 69 1010.6
20260509201002 61 153 6.0 16.0 0.00 0.03 0.03 67 1010.7
20260509200004 61 171 7.0 18.0 0.00 0.03 0.03 67 1010.6
20260509195502 61 176 5.0 13.0 0.00 0.03 0.03 67 1010.6
20260509195013 62 97 6.0 14.0 0.00 0.03 0.03 67 1010.6
20260509194507 61 172 6.0 19.0 0.00 0.03 0.03 68 1010.7
20260509194029 61 290 7.0 19.0 0.00 0.03 0.03 68 1010.9
20260509193005 61 152 7.0 18.0 0.00 0.03 0.03 67 1011.0
20260509192508 62 163 7.0 18.0 0.00 0.03 0.03 66 1010.8
20260509192003 62 122 6.0 16.0 0.00 0.03 0.03 67 1010.7
20260509191520 62 238 5.0 16.0 0.00 0.03 0.03 65 1010.9
20260509191021 62 190 5.0 11.0 0.00 0.03 0.03 65 1010.9
20260509190505 62 115 6.0 16.0 0.00 0.03 0.03 64 1010.9
20260509190005 62 282 6.0 16.0 0.00 0.03 0.03 62 1010.7
20260509185508 62 188 6.0 16.0 0.00 0.03 0.03 63 1010.7
20260509184526 62 212 6.0 14.0 0.00 0.03 0.03 63 1010.9
20260509184000 62 200 6.0 12.0 0.00 0.03 0.03 65 1011.0
20260509183500 62 91 6.0 12.0 0.00 0.03 0.03 64 1010.8
20260509183005 62 119 6.0 12.0 0.00 0.03 0.03 64 1010.9
20260509182507 61 159 5.0 15.0 0.00 0.03 0.03 65 1010.9
20260509182002 61 155 6.0 15.0 0.00 0.03 0.03 66 1011.0
20260509181634 60 135 6.0 15.0 0.00 0.03 0.03 66 1011.0
20260509174504 60 178 5.0 10.0 0.00 0.03 0.03 68 1011.3
20260509174002 60 185 4.0 10.0 0.00 0.03 0.03 69 1011.3
20260509173503 60 104 4.0 10.0 0.00 0.03 0.03 67 1011.6
20260509173005 60 136 4.0 18.0 0.00 0.03 0.03 68 1011.6
20260509172021 60 165 6.0 18.0 0.00 0.03 0.03 65 1011.7
20260509171006 60 190 6.0 12.0 0.00 0.03 0.03 64 1011.6
20260509170502 61 154 5.0 14.0 0.00 0.03 0.03 63 1011.5
20260509170006 61 144 4.0 14.0 0.00 0.03 0.03 62 1011.5
20260509165501 61 115 5.0 14.0 0.00 0.03 0.03 61 1011.5
20260509165000 61 185 7.0 15.0 0.00 0.03 0.03 60 1011.5
20260509164459 61 158 7.0 15.0 0.00 0.03 0.03 60 1011.4
20260509164004 61 195 7.0 14.0 0.00 0.03 0.03 60 1011.4
20260509163502 61 171 7.0 14.0 0.00 0.03 0.03 61 1011.5
20260509163007 61 216 8.0 19.0 0.00 0.03 0.03 62 1011.5
20260509162501 61 159 7.0 19.0 0.00 0.03 0.03 61 1011.7
20260509162023 61 138 7.0 15.0 0.00 0.03 0.03 63 1011.7
20260509161516 60 290 7.0 15.0 0.00 0.03 0.03 61 1011.7
20260509161022 60 161 7.0 15.0 0.00 0.03 0.03 63 1011.8
20260509160458 60 152 7.0 15.0 0.00 0.03 0.03 62 1012.0
20260509160005 60 153 7.0 21.0 0.00 0.03 0.03 62 1012.0
20260509155501 60 149 8.0 21.0 0.00 0.03 0.03 63 1012.0
20260509155006 60 157 8.0 16.0 0.00 0.03 0.03 61 1012.0
20260509154521 60 152 8.0 16.0 0.00 0.03 0.03 62 1012.1
20260509154025 60 177 7.0 13.0 0.00 0.03 0.03 61 1012.2
20260509153514 60 143 5.0 11.0 0.00 0.03 0.03 63 1012.2
20260509153006 60 132 5.0 18.0 0.00 0.03 0.03 62 1012.1
20260509152501 60 22 7.0 18.0 0.00 0.03 0.03 62 1012.1
20260509152005 61 140 6.0 12.0 0.00 0.03 0.03 64 1012.3
20260509151536 61 149 6.0 12.0 0.00 0.03 0.03 65 1012.4
20260509151002 60 128 6.0 12.0 0.00 0.03 0.03 64 1012.4
20260509150501 59 165 7.0 12.0 0.00 0.03 0.03 65 1012.2
20260509145012 59 201 5.0 10.0 0.00 0.03 0.03 68 1012.2
20260509144532 59 134 4.0 10.0 0.00 0.03 0.03 68 1012.4
20260509144004 58 190 4.0 8.0 0.00 0.03 0.03 67 1012.3
20260509143504 58 187 6.0 12.0 0.00 0.03 0.03 69 1012.4
20260509143003 58 153 7.0 12.0 0.00 0.03 0.03 69 1012.4
20260509142023 57 124 6.0 10.0 0.00 0.03 0.03 72 1012.5
20260509141458 57 124 5.0 10.0 0.00 0.03 0.03 73 1012.6
20260509141030 57 171 4.0 9.0 0.00 0.03 0.03 74 1012.6
20260509135506 55 153 6.0 11.0 0.00 0.03 0.03 75 1013.0
20260509135020 55 135 6.0 15.0 0.00 0.03 0.03 74 1013.1
20260509134503 55 130 6.0 15.0 0.00 0.03 0.03 73 1013.2
20260509134002 55 138 5.0 9.0 0.00 0.03 0.03 73 1013.2
20260509133544 54 156 5.0 9.0 0.00 0.03 0.03 74 1013.1
20260509133001 54 119 4.0 9.0 0.00 0.03 0.03 76 1013.0
20260509132510 54 126 3.0 9.0 0.00 0.03 0.03 76 1013.0
20260509132003 53 153 3.0 7.0 0.00 0.03 0.03 78 1013.1
20260509131506 53 158 2.0 7.0 0.00 0.03 0.03 78 1013.3
20260509130503 52 152 4.0 8.0 0.00 0.03 0.03 80 1013.4
20260509130005 52 109 3.0 7.0 0.00 0.03 0.03 82 1013.4
20260509125505 52 104 3.0 7.0 0.00 0.03 0.03 82 1013.3
20260509125004 52 132 3.0 7.0 0.00 0.03 0.03 83 1013.3
20260509124052 51 135 3.0 5.0 0.01 0.03 0.03 87 1013.2
20260509123504 51 139 2.0 6.0 0.01 0.03 0.03 88 1013.1
20260509123004 50 165 1.0 6.0 0.02 0.03 0.03 88 1013.1
20260509122509 50 109 0.0 0.0 0.03 0.03 0.03 88 1013.0
20260509122004 49 109 0.0 0.0 0.03 0.03 0.03 88 1013.1
20260509121513 49 109 0.0 0.0 0.03 0.03 0.03 88 1013.1
20260509120458 49 208 0.0 0.0 0.03 0.03 0.03 88 1013.4
20260509120023 49 230 0.0 0.0 0.03 0.03 0.03 88 1013.6
20260509115509 48 230 0.0 0.0 0.03 0.03 0.03 88 1013.7
20260509115022 48 230 0.0 0.0 0.03 0.03 0.03 87 1013.8
20260509114508 48 230 0.0 0.0 0.02 0.02 0.02 87 1013.9
20260509114029 47 230 0.0 0.0 0.02 0.02 0.02 87 1014.1
20260509113510 47 230 0.0 2.0 0.02 0.02 0.02 86 1014.2
20260509113005 47 231 0.0 2.0 0.01 0.01 0.01 86 1014.2
20260509112517 46 237 0.0 1.0 0.00 0.00 0.00 86 1014.2
20260509112008 46 237 0.0 0.0 0.00 0.00 0.00 85 1014.2
20260509111459 46 237 0.0 0.0 0.00 0.00 0.00 85 1014.1
20260509111011 46 237 0.0 1.0 0.00 0.00 0.00 84 1014.0
20260509110510 46 237 0.0 1.0 0.00 0.00 0.00 84 1013.9
20260509110024 46 237 0.0 1.0 0.00 0.00 0.00 84 1013.9
20260509105505 45 217 0.0 1.0 0.00 0.00 0.00 83 1013.8
20260509104506 45 217 0.0 1.0 0.00 0.00 0.00 83 1013.8
20260509104026 45 217 0.0 2.0 0.00 0.00 0.00 82 1013.8
20260509103544 45 217 0.0 2.0 0.00 0.00 0.00 82 1013.7
20260509103002 45 217 0.0 2.0 0.00 0.00 0.00 82 1013.6
20260509102022 44 234 0.0 0.0 0.00 0.00 0.00 82 1013.3
20260509101026 44 234 0.0 0.0 0.00 0.00 0.00 82 1013.0
20260509100503 44 234 0.0 0.0 0.00 0.00 0.00 83 1012.7
20260509095506 43 234 0.0 0.0 0.00 0.00 0.00 83 1012.5